Flag for Uruguay Weather past 2 weeks in Canelones, Uruguay

Now
70 °F

Clear.


Feels Like: 70 °F
Forecast: 60 / 82 °F
Wind: 7 mph from East

Location: Carrasco

Current Time: Oct 24, 2014 at 11:31:09 PM

Latest Report: Oct 24, 2014 at 11:00 PM


Visibility: 10 mi

Pressure: 29.95 "Hg

Humidity: 88%

Dew point: 66 °F

Location of CanelonesLocation

Historic Weather in Canelones — Graph

°F

Canelones temperature yesterday

Maximum temperature yesterday: 81 °F (at 1:00 PM)
Minimum temperature yesterday: 59 °F (at 7:00 AM)
Average temperature yesterday: 71 °F

Past Weeks' High & Low Weather Summary

 TemperatureHumidityPressure
High86 °F (Oct 22, 4:00 PM)100% (Oct 10, 12:00 AM)30.18 "Hg (Oct 10, 12:00 AM)
Low50 °F (Oct 13, 4:00 AM)21% (Oct 21, 4:00 PM)29.71 "Hg (Oct 9, 10:00 PM)
Average65 °F72%29.98 "Hg
* Reported Oct 9 10:00 PM — Oct 24 10:00 PM, Canelones, Weather by CustomWeather, © 2014

Note: Actual official high and low records may vary slightly from our data, if they occured in-between our weather recording intervals... More about our weather records

Advertising

Canelones weather history for previous 24 hours

 ConditionsComfort  
Time TempWeatherWind HumidityBarometerVisibility
10:00 PM
Oct 24
70 °FClear.9 mph88%29.95 "Hg10 mi
9:00 PM70 °FClear.10 mph88%29.95 "Hg10 mi
8:00 PM70 °FSunny.10 mph83%29.95 "Hg10 mi
7:00 PM70 °FSunny.16 mph88%29.95 "Hg10 mi
6:00 PM72 °FSunny.13 mph73%29.95 "Hg10 mi
5:00 PM72 °FSunny.9 mph73%29.98 "Hg10 mi
4:00 PM73 °FSunny.14 mph65%29.98 "Hg10 mi
3:00 PM72 °FSunny.12 mph69%30.01 "Hg10 mi
2:00 PM73 °FSunny.9 mph69%30.01 "Hg10 mi
1:00 PM81 °FSunny.5 mph51%29.98 "Hg10 mi
12:00 PM75 °FSunny.3 mph74%30.01 "Hg10 mi
11:00 AM75 °FSunny.No wind74%30.04 "Hg10 mi
10:00 AM70 °FSunny.5 mph83%30.01 "Hg10 mi
9:00 AM68 °FSunny.8 mph88%30.04 "Hg10 mi
8:00 AM66 °FSunny.8 mph88%30.01 "Hg10 mi
7:00 AM64 °FScattered clouds.7 mph100%29.98 "HgN/A
6:00 AM64 °FPassing clouds.8 mph88%29.98 "HgN/A
5:00 AM66 °FPassing clouds.9 mph78%29.98 "HgN/A
4:00 AM66 °FClear.7 mph78%29.98 "Hg10 mi
3:00 AM68 °FClear.3 mph88%29.98 "Hg10 mi
2:00 AM68 °FClear.3 mph88%29.98 "Hg10 mi
1:00 AM68 °FClear.5 mph88%29.98 "Hg10 mi
12:00 AM68 °FClear.5 mph83%29.98 "Hg10 mi
11:00 PM
Oct 23
70 °FClear.7 mph83%29.98 "Hg10 mi
Weather by CustomWeather, © 2014

See weather overviewHow to use our weather pages